Location: Cheyres
(46.8153°N, 6.7877°E)
Time: 03:40:07
(UTC+00:00)

ATLAS 2AS CENTAUR R/B - Pass Details

Date: 11 May 2021
Orbit: 949 x 1263 km, 63.7° (Epoch: 07 May)

Event Time Altitude Azimuth Distance (km) Brightness Sun altitude
Rises 23:14:35 0° 315° (NW) 4,061 6.5 -25.0°
Reaches altitude 10° 23:17:45 10° 305° (NW) 3,045 5.5 -25.0°
Maximum altitude 23:23:44 29° 249° (WSW) 1,886 3.8 -25.0°
Enters shadow 23:24:29 28° 238° (WSW) 1,898 3.7 -25.0°
